Home > Weather > Stockton > Past weeks

Flag for USA Past Weather in Stockton, California, USA — Yesterday and Last 2 Weeks

Now
72 °F

Sunny.


Feels Like: 77 °F
Forecast: 58 / 87 °F
Wind: 3 mph from North

Location: Stockton Metropolitan Airport

Current Time: Aug 27, 2016 at 11:56:33 AM

Latest Report: Aug 27, 2016 at 10:55 AM


Visibility: 10 mi

Pressure: 29.98 "Hg

Humidity: 53%

Dew Point: 54 °F

Location of StocktonLocation

Past Weather in Stockton — Graph

°F

Stockton Temperature Yesterday

Maximum temperature yesterday: 85 °F (at 3:55 PM)
Minimum temperature yesterday: 57 °F (at 3:55 AM)
Average temperature yesterday: 69 °F

High & Low Weather Summary for the Past Weeks

 TemperatureHumidityPressure
High101 °F (Aug 13, 3:55 PM)90% (Aug 25, 6:55 AM)30.06 "Hg (Aug 25, 6:55 AM)
Low55 °F (Aug 25, 4:55 AM)12% (Aug 13, 4:55 PM)29.72 "Hg (Aug 17, 6:55 PM)
Average75 °F51%29.87 "Hg
* Reported Aug 12 10:55 AM — Aug 27 10:55 AM, Stockton, Weather by CustomWeather, © 2016

Note: Actual official high and low records may vary slightly from our data, if they occured in-between our weather recording intervals... More about our weather records

Advertising

Stockton Weather History for the Previous 24 Hours

Scroll right to see more
 ConditionsComfort  
Time TempWeatherWind HumidityBarometerVisibility
10:55 AM
Sat, Aug 27
72 °FSunny.3 mph53%29.98 "Hg10 mi
9:55 AM69 °FSunny.5 mph61%29.98 "Hg10 mi
8:55 AM66 °FSunny.6 mph65%29.97 "Hg10 mi
7:55 AM62 °FSunny.9 mph75%29.96 "Hg10 mi
6:55 AM57 °FClear.7 mph90%29.95 "Hg8 mi
5:55 AM56 °FClear.3 mph90%29.94 "Hg8 mi
4:55 AM57 °FClear.5 mph90%29.93 "Hg10 mi
3:55 AM58 °FClear.7 mph90%29.93 "Hg10 mi
2:55 AM58 °FClear.6 mph90%29.93 "Hg9 mi
1:55 AM59 °FClear.6 mph87%29.93 "Hg10 mi
12:55 AM60 °FClear.5 mph86%29.92 "Hg10 mi
11:55 PM
Fri, Aug 26
62 °FClear.9 mph80%29.91 "Hg10 mi
10:55 PM64 °FClear.9 mph75%29.91 "Hg10 mi
9:55 PM65 °FClear.12 mph73%29.90 "Hg10 mi
8:55 PM68 °FClear.9 mph63%29.89 "Hg10 mi
7:55 PM70 °FSunny.12 mph64%29.86 "Hg10 mi
6:55 PM75 °FSunny.14 mph54%29.85 "Hg10 mi
5:55 PM80 °FSunny.13 mph42%29.85 "Hg10 mi
4:55 PM83 °FSunny.10 mph40%29.85 "Hg10 mi
3:55 PM85 °FSunny.9 mph35%29.86 "Hg10 mi
2:55 PM83 °FSunny.13 mph37%29.87 "Hg10 mi
1:55 PM82 °FSunny.8 mph40%29.89 "Hg10 mi
12:55 PM79 °FSunny.8 mph47%29.90 "Hg10 mi
11:55 AM77 °FSunny.6 mph44%29.90 "Hg10 mi
Weather by CustomWeather, © 2016

See weather overviewHow to use our weather pages